This is the latest recevied weather packets stored in our database for station/object KC5DAQ-28. If no packets are shown the sender has not sent any weather packets the latest 10 day(s).
| Time | Temp. | Humidity | Pressure | Rain* | Wind** | Luminosity | Snow |
|---|---|---|---|---|---|---|---|
| 1788623914 | 31.11° C | 72% | 1008.3 hPa | 0 mm | - | 413 W/m² | - |
| 1788623853 | 31.11° C | 72% | 1008.4 hPa | 0 mm | - | 274 W/m² | - |
| 1788623787 | 31.11° C | 72% | 1008.4 hPa | 0 mm | - | 294 W/m² | - |
| 1788623727 | 31.11° C | 73% | 1008.4 hPa | 0 mm | - | 239 W/m² | - |
| 1788623655 | 31.11° C | 73% | 1008.3 hPa | 0 mm | - | 239 W/m² | - |
| 1788623589 | 31.11° C | 73% | 1008.3 hPa | 0 mm | - | 561 W/m² | - |
| 1788623527 | 31.11° C | 73% | 1008.3 hPa | 0 mm | - | 800 W/m² | - |
| 1788623462 | 31.11° C | 73% | 1008.3 hPa | 0 mm | - | 800 W/m² | - |
| 1788623404 | 30.56° C | 73% | 1008.3 hPa | 0 mm | - | 800 W/m² | - |
| 1788623344 | 30.56° C | 73% | 1008.2 hPa | 0 mm | - | 800 W/m² | - |
| 1788623282 | 30.56° C | 74% | 1008.4 hPa | 0 mm | - | 862 W/m² | - |
| 1788623222 | 30.56° C | 73% | 1008.3 hPa | 0 mm | - | 862 W/m² | - |
| 1788623162 | 30.56° C | 73% | 1008.3 hPa | 0 mm | - | 862 W/m² | - |
| 1788623104 | 30.56° C | 73% | 1008.3 hPa | 0 mm | - | 549 W/m² | - |
| 1788623043 | 30.56° C | 74% | 1008.3 hPa | 0 mm | - | 549 W/m² | - |
| 1788622983 | 30.56° C | 74% | 1008.3 hPa | 0 mm | - | 549 W/m² | - |
| 1788622922 | 30.56° C | 75% | 1008.2 hPa | 0 mm | - | 549 W/m² | - |
| 1788622862 | 30.56° C | 75% | 1008.3 hPa | 0 mm | - | 257 W/m² | - |
| 1788622802 | 30.56° C | 75% | 1008.3 hPa | 0 mm | - | 169 W/m² | - |
| 1788622743 | 30.56° C | 75% | 1008.3 hPa | 0 mm | - | 169 W/m² | - |
| 1788622683 | 30.56° C | 75% | 1008.3 hPa | 0 mm | - | 162 W/m² | - |
| 1788622623 | 30.56° C | 75% | 1008.3 hPa | 0 mm | - | 162 W/m² | - |
| 1788622563 | 30.56° C | 75% | 1008.3 hPa | 0 mm | - | 153 W/m² | - |
| 1788622505 | 30.56° C | 75% | 1008.3 hPa | 0 mm | - | 178 W/m² | - |
| 1788622442 | 30.56° C | 76% | 1008.4 hPa | 0 mm | - | 797 W/m² | - |
* Rain latest hour (hover to see other rain measurements)
** Current wind speed in m/s (hover to see current wind gust speed)